Temperature
16 17 17 17 17 16 16 15 15 15 15 16 16 15 16 17 17 17 17 17 17 17 17 17 16 16 16 16 15 15 15 15 15 14 14 14 14 14 14 14 14 13 13 13
16 17 16 16 16 16 16 16 15 15 15 16 16 16 16 16 17 17 17 17 17 17 17 17 16 16 16 16 15 15 15 15 14 14 14 14 14 14 14 13 13 13 13 13
15 16 17 16 16 16 16 16 16 16 16 15 14 15 15 16 17 17 18 18 17 17 17 17 17 16 16 16 15 15 15 14 14 14 14 14 14 14 14 13 13 13 13 13
13 15 16 16 16 16 16 16 16 16 15 15 15 16 16 17 17 17 18 18 17 17 17 17 16 16 15 15 15 15 14 14 14 14 14 13 13 13 13 13 13 13 13 13
12 14 15 15 16 16 16 16 16 15 15 15 15 15 16 17 17 17 17 17 17 17 17 16 16 16 15 15 15 14 14 14 14 13 13 13 13 13 13 13 13 13 12 12
12 14 15 16 17 17 17 16 16 16 15 15 15 14 15 17 17 17 17 17 17 16 16 16 16 15 15 14 14 14 14 14 13 13 13 13 13 13 12 12 12 12 12 12
12 13 14 15 16 17 16 16 17 17 16 15 15 16 17 17 17 17 17 16 16 16 16 16 15 15 14 14 14 14 13 13 13 13 13 13 12 12 12 12 12 12 12 12
11 13 14 15 15 15 15 17 17 17 17 16 17 17 17 17 17 16 16 16 16 16 15 15 15 14 14 14 14 13 13 13 13 13 12 12 12 12 12 12 12 12 12 12
12 14 15 15 16 17 17 17 17 17 17 16 16 16 16 16 16 16 16 16 15 15 15 14 14 14 14 13 13 13 13 12 12 12 12 12 12 12 12 11 11 11 11 11
11 12 14 15 16 16 17 17 17 17 16 16 16 16 16 16 16 15 15 15 15 15 14 14 14 13 13 13 12 12 12 12 12 12 12 12 11 11 11 11 11 11 11 11
11 12 14 15 16 16 16 16 16 16 16 16 16 15 15 15 15 15 15 14 14 14 14 14 13 13 13 12 12 12 12 12 11 11 11 11 11 11 11 10 10 10 10 10
12 13 13 15 16 16 16 16 16 16 15 15 15 15 15 15 15 14 14 14 14 14 14 13 13 13 12 12 11 11 11 11 11 11 11 11 10 10 10 10 10 10 10 9
15 15 15 15 15 15 15 15 15 15 15 15 15 15 15 14 14 14 14 14 14 14 13 13 13 12 12 11 11 11 11 11 11 10 10 10 10 10 10 10 9 9 9 9
14 14 14 14 15 15 15 15 15 15 15 14 14 14 14 14 14 14 14 14 13 13 13 12 12 12 12 11 11 11 11 10 10 10 10 10 9 9 9 9 9 9 9 9
14 14 14 14 14 14 14 14 14 14 14 14 14 14 14 14 14 13 13 13 13 13 12 12 12 12 11 11 11 10 10 10 10 10 9 9 9 9 8 8 8 8 8 8
13 13 13 13 13 13 13 13 13 13 13 13 13 13 13 13 13 13 13 13 12 12 12 12 12 11 11 11 10 10 10 10 10 9 9 9 9 8 8 8 8 8 8 8
12 12 12 12 13 13 13 13 13 13 13 13 13 13 12 12 12 12 12 12 12 12 11 11 11 11 10 10 10 10 10 9 9 9 9 9 8 8 8 8 7 7 7 7
13 13 13 12 12 13 13 13 13 13 13 13 12 12 12 12 12 12 12 12 11 11 11 11 10 10 10 10 9 9 9 9 9 8 8 8 8 8 7 7 7 7 7 6
13 12 12 12 12 12 12 12 12 12 12 12 12 12 12 12 12 11 11 11 11 11 11 10 10 10 9 9 9 9 9 8 8 8 7 7 7 7 7 7 7 6 6 6
12 12 12 12 12 12 12 12 12 12 12 12 11 11 11 11 11 11 11 10 11 11 10 10 9 9 9 9 8 8 8 8 8 7 7 7 7 6 6 6 6 6 5 5
11 11 11 11 11 11 11 11 11 11 11 11 11 11 11 11 10 10 10 10 10 10 10 9 9 9 8 8 8 8 8 7 7 7 7 6 6 6 6 6 5 5 5 5
11 11 11 11 11 11 11 11 11 11 11 11 11 11 10 10 10 10 10 10 10 9 9 9 9 8 8 8 7 7 7 7 7 6 6 6 6 6 5 5 5 5 5 5
10 10 10 10 10 10 10 10 10 10 10 10 10 10 10 10 9 9 9 9 9 9 9 8 8 8 7 7 7 7 7 6 6 6 6 5 5 5 5 5 4 4 4 4
9 9 9 9 9 9 9 10 9 9 9 9 9 9 9 9 9 9 9 9 9 8 8 8 8 7 7 7 6 6 6 6 5 5 5 5 5 4 4 4 4 4 4 3
9 9 9 8 9 9 9 9 9 9 9 9 9 9 9 9 9 9 8 8 8 8 8 7 7 7 6 6 6 5 5 5 5 4 4 4 4 4 4 3 3 3 3 3
8 8 8 8 8 8 8 8 8 8 8 8 8 8 8 8 8 8 8 7 7 7 7 7 6 6 6 5 5 5 5 4 4 4 3 3 3 3 3 3 3 2 2 2
7 7 7 7 7 7 7 7 7 7 7 7 7 7 7 7 7 7 7 7 6 6 6 6 5 5 5 5 4 4 4 4 3 3 3 3 3 2 2 2 2 2 2 2
Wind_Speed
6 5 3 5 5 6 7 8 8 8 8 10 7 6 5 3 2 1 1 2 3 4 4 3 3 3 3 3 3 3 3 4 4 4 3 3 3 3 2 2 3 3 3 3
3 3 3 4 6 6 7 6 6 6 8 7 4 2 2 3 3 2 3 3 3 3 3 4 4 4 3 3 3 3 4 4 3 3 3 3 3 3 2 3 2 2 3 3
4 4 1 5 7 7 6 6 7 9 9 4 2 4 5 5 4 5 4 4 4 4 5 5 5 5 4 4 3 3 3 3 3 3 3 3 3 2 3 3 3 3 3 3
2 0 6 7 3 6 6 6 7 6 5 5 6 4 4 4 5 5 4 4 4 4 4 4 3 3 3 2 2 3 2 3 3 4 4 3 2 3 3 3 3 3 3 3
3 4 7 7 4 5 5 6 6 7 5 4 2 2 3 4 5 5 5 4 4 4 3 2 2 2 2 2 1 1 2 3 3 4 4 3 3 3 3 2 3 2 2 3
4 4 6 7 5 3 3 5 6 6 6 5 4 1 5 4 3 3 2 1 1 1 2 2 2 3 3 2 2 3 4 4 3 3 4 4 4 3 2 2 3 2 2 2
5 6 8 7 4 4 4 7 4 5 6 6 7 7 4 2 2 2 2 1 1 2 2 2 2 3 3 2 4 5 3 2 2 3 4 4 3 2 3 2 2 2 1 1
5 5 8 3 4 6 6 3 2 3 4 5 5 3 2 2 3 2 1 1 2 2 1 1 2 4 3 4 4 2 1 1 1 2 3 3 3 2 3 3 3 2 1 1
8 8 5 3 4 3 2 2 2 2 2 3 3 3 3 3 3 2 2 2 2 2 2 0 2 3 4 3 1 1 1 1 2 1 2 2 3 3 2 3 3 2 2 2
4 7 6 5 4 2 2 3 2 2 2 2 3 4 3 3 3 2 2 2 2 3 2 1 2 2 2 1 1 2 2 2 2 2 2 2 3 3 3 3 3 3 3 3
5 6 5 5 4 4 2 2 1 1 1 2 3 3 4 4 4 4 2 2 3 3 3 3 2 2 1 1 2 2 2 2 2 2 2 2 3 3 4 4 4 4 4 4
8 7 6 7 5 4 4 4 3 2 2 2 3 4 4 4 4 4 3 2 2 2 2 2 2 2 2 2 3 3 2 2 2 2 2 2 2 1 2 3 3 4 4 3
9 6 7 7 5 4 5 5 4 4 4 4 4 4 4 3 3 3 3 3 4 4 3 2 2 2 2 2 3 3 4 3 2 2 2 2 2 2 2 2 1 2 3 3
7 4 6 7 7 6 5 5 4 4 4 4 4 3 3 3 3 4 5 5 3 3 3 3 3 3 3 2 3 3 3 3 3 3 3 3 3 3 3 2 2 2 3 3
9 8 9 7 6 5 4 4 3 4 4 4 3 4 4 4 5 5 4 3 2 2 3 3 3 4 3 3 3 3 3 3 3 3 3 3 3 3 2 3 3 2 1 2
7 6 6 6 8 7 5 5 6 7 5 5 4 4 5 5 4 3 3 4 4 5 5 4 5 4 3 3 3 3 3 5 4 3 3 3 3 3 3 3 3 3 3 3
6 7 7 7 9 8 8 8 8 7 6 5 6 5 3 3 2 3 4 4 5 5 5 5 5 4 3 4 4 3 3 4 4 3 4 4 4 4 4 4 4 4 4 4
11 11 10 9 9 8 8 7 7 6 6 6 4 4 4 5 6 6 5 3 2 2 4 4 4 3 4 4 4 4 3 3 3 3 3 3 3 4 4 4 4 4 3 3
9 9 9 8 7 6 6 6 6 6 5 4 4 5 6 6 6 5 4 3 4 4 5 4 4 3 4 5 4 3 4 4 3 3 3 4 3 3 4 4 4 4 4 3
7 6 5 5 5 4 5 4 4 4 4 4 4 4 4 5 4 4 4 5 5 5 4 4 3 3 4 4 4 3 4 4 4 4 4 4 4 4 4 4 4 4 4 4
5 4 4 4 4 4 4 4 4 4 4 4 5 6 6 5 4 4 4 4 5 3 3 4 3 3 3 3 4 3 3 3 4 4 4 4 4 4 4 4 4 4 4 4
3 3 4 3 3 3 3 3 4 4 4 4 5 5 4 4 4 4 5 5 4 3 3 3 3 3 4 3 3 3 3 3 3 3 3 3 3 3 3 3 4 4 4 4
3 3 3 4 4 4 3 3 4 4 4 5 5 5 5 5 4 4 5 4 3 4 3 3 4 5 5 3 2 3 3 3 3 3 3 3 3 3 3 3 3 3 3 3
2 2 3 2 2 2 3 4 3 3 4 4 5 5 5 4 3 4 4 4 4 4 3 4 5 5 4 2 2 3 3 3 3 3 3 3 3 3 3 3 3 3 3 3
2 2 2 2 2 3 4 3 2 2 2 2 3 3 4 4 4 3 2 3 4 3 2 3 4 4 3 2 3 3 3 3 3 3 3 2 2 3 3 3 3 3 3 3
2 2 3 3 3 3 2 2 2 2 2 2 2 2 2 1 2 2 1 2 3 3 2 2 2 3 2 2 3 3 3 3 3 2 3 3 3 3 3 3 4 3 3 4
2 2 2 2 2 2 2 2 2 3 3 3 3 2 2 1 1 2 2 2 2 2 2 2 2 2 2 2 2 2 2 2 2 2 2 2 2 3 3 4 3 3 3 3
Wind_Direction
241 246 221 226 229 195 194 199 205 232 235 256 258 251 257 254 261 264 238 211 207 202 198 201 203 201 194 201 207 203 199 210 224 226 224 223 224 222 214 204 206 198 195 212
278 265 235 250 251 225 222 214 217 237 259 255 256 236 256 252 232 235 239 230 221 214 203 209 213 210 206 215 216 194 199 218 223 216 217 221 224 212 200 212 219 206 204 205
256 291 333 265 237 215 219 216 197 221 238 239 237 234 230 232 226 227 233 230 226 222 219 220 214 204 207 215 209 197 210 217 214 208 213 225 223 205 208 214 209 213 223 207
207 45 242 247 239 203 215 243 223 225 229 219 223 232 237 223 214 224 234 236 231 221 223 223 209 197 191 173 177 192 210 221 216 204 210 214 201 209 219 211 206 213 222 221
157 222 270 289 258 194 198 259 226 214 225 212 184 47 309 241 215 224 232 230 225 216 209 193 187 184 156 162 177 188 224 237 227 206 202 197 199 214 213 196 205 208 214 218
158 195 239 248 250 202 144 271 247 204 205 192 142 170 261 245 227 239 246 233 204 167 143 160 191 164 157 183 189 227 236 235 231 212 201 201 207 207 199 191 205 200 213 228
189 222 254 249 248 131 173 248 240 199 200 187 195 215 233 219 217 216 219 215 157 138 149 195 182 158 168 194 227 240 239 223 216 212 207 207 202 192 179 177 175 176 186 238
170 205 250 241 147 180 223 259 215 213 211 205 220 236 240 210 209 197 183 148 146 143 155 171 167 163 184 226 247 253 206 183 197 206 205 193 179 179 169 164 168 183 183 248
194 215 243 237 219 246 210 220 233 223 244 199 213 234 227 215 206 198 194 178 163 154 149 187 193 181 201 240 234 161 160 193 211 200 199 185 174 171 164 167 179 199 201 232
240 261 260 261 258 273 241 234 244 226 209 186 218 232 229 214 202 198 196 183 161 149 162 213 228 214 215 218 176 159 178 206 209 188 189 188 182 179 178 188 194 202 212 233
248 269 293 280 251 251 255 261 306 306 234 208 204 232 218 214 210 204 198 181 166 174 190 216 214 221 229 185 159 178 197 200 201 195 191 194 195 198 198 207 201 202 217 216
234 232 223 250 255 241 233 241 233 242 268 259 220 222 221 218 217 203 194 188 182 186 194 213 208 217 224 190 176 175 189 201 201 192 189 186 191 218 233 224 226 214 218 214
237 242 237 256 253 236 235 246 243 235 236 247 246 221 214 219 209 198 195 196 196 200 201 197 201 220 233 204 185 184 193 201 196 193 191 194 193 199 234 296 295 261 250 240
237 234 257 256 252 250 245 247 248 251 247 234 228 222 210 210 203 204 212 211 204 192 193 196 205 227 227 200 193 199 199 204 200 202 202 202 205 212 210 213 248 285 285 253
242 233 238 250 255 253 241 232 238 251 250 249 226 213 207 205 213 221 221 190 169 188 211 207 217 242 231 199 197 206 206 210 210 206 204 205 205 207 212 212 217 236 268 270
245 244 241 244 247 248 239 227 226 238 240 241 235 228 222 217 219 218 205 182 179 205 219 216 227 239 223 202 202 209 219 224 216 204 205 205 203 206 215 217 216 219 226 236
229 242 240 243 244 244 237 231 225 229 228 233 236 231 216 207 201 211 221 220 213 217 219 220 233 234 214 202 200 209 217 224 216 208 207 207 207 213 217 217 221 225 232 232
225 229 228 227 234 240 240 234 229 226 225 232 230 216 209 208 214 221 223 220 225 245 243 237 230 221 216 208 203 205 209 214 210 208 208 210 214 212 212 219 227 233 241 239
237 234 232 229 227 225 228 230 231 230 229 217 211 218 222 222 218 217 205 198 209 240 255 249 235 213 217 221 208 198 203 210 216 217 213 219 218 214 215 219 227 232 229 225
238 234 227 226 221 216 225 228 225 229 230 216 212 219 221 225 219 204 195 210 223 234 235 228 217 218 219 219 207 198 200 207 215 222 219 214 216 223 226 228 230 234 233 233
236 231 221 220 224 226 228 226 217 226 232 220 217 218 220 224 212 196 196 237 258 243 217 213 212 220 214 210 199 192 195 204 213 219 219 217 218 224 229 231 231 233 236 238
239 233 229 224 221 240 245 231 221 222 222 224 223 219 213 216 217 213 215 230 243 224 208 211 216 218 212 200 186 189 198 205 212 214 218 215 215 222 231 234 236 238 237 237
245 236 229 224 223 235 246 236 224 217 217 221 221 219 216 215 211 212 241 246 225 215 206 207 215 212 206 188 182 189 197 204 211 214 218 219 216 220 229 233 235 238 240 241
256 249 245 235 205 208 238 245 235 226 224 228 229 223 216 215 229 229 232 228 221 215 212 210 206 206 197 178 182 191 198 206 212 215 217 221 220 220 227 231 236 240 241 241
252 254 256 230 221 233 236 236 233 235 233 245 250 242 229 215 218 226 218 213 210 203 208 212 208 202 187 183 193 201 204 207 210 208 205 214 226 229 230 230 233 238 240 241
246 249 250 242 237 238 229 215 224 234 232 250 262 253 247 240 210 194 196 203 196 195 190 187 189 190 191 195 196 199 202 216 223 219 213 218 228 231 233 236 241 245 246 246
262 264 273 287 280 244 217 208 214 231 233 230 247 251 234 218 189 176 178 187 188 188 185 182 185 188 185 184 187 193 199 204 208 212 215 223 231 237 237 237 240 245 248 249
Height
1528 1525 1525 1525 1525 1527 1530 1532 1536 1531 1529 1520 1516 1515 1513 1513 1513 1512 1512 1513 1513 1514 1515 1517 1518 1519 1520 1522 1523 1524 1525 1525 1526 1526 1527 1527 1528 1528 1528 1529 1529 1529 1530 1530
1527 1523 1524 1525 1522 1523 1523 1523 1525 1524 1522 1513 1512 1512 1511 1511 1510 1510 1510 1511 1511 1512 1513 1514 1515 1516 1517 1519 1520 1521 1522 1522 1523 1523 1524 1524 1525 1525 1526 1526 1527 1527 1527 1527
1534 1526 1523 1527 1519 1518 1518 1516 1517 1520 1514 1510 1510 1509 1508 1508 1508 1508 1508 1509 1509 1510 1510 1511 1512 1513 1514 1515 1517 1518 1518 1519 1519 1520 1520 1521 1522 1522 1523 1523 1524 1524 1524 1525
1535 1530 1534 1520 1509 1509 1511 1510 1509 1508 1507 1506 1506 1506 1506 1506 1506 1506 1506 1507 1507 1508 1508 1509 1510 1510 1512 1513 1513 1514 1514 1515 1515 1516 1517 1517 1518 1518 1519 1520 1520 1521 1521 1521
1536 1534 1527 1515 1507 1507 1509 1508 1503 1504 1503 1504 1504 1505 1504 1504 1504 1504 1504 1505 1505 1506 1506 1506 1507 1508 1508 1509 1510 1510 1511 1511 1511 1512 1512 1513 1514 1515 1515 1516 1517 1517 1518 1518
1534 1531 1529 1513 1502 1501 1505 1509 1499 1499 1500 1501 1503 1507 1503 1501 1501 1501 1502 1502 1503 1503 1504 1504 1504 1505 1505 1505 1506 1506 1507 1507 1508 1508 1509 1509 1510 1511 1512 1513 1513 1514 1515 1515
1530 1529 1519 1504 1500 1501 1513 1507 1497 1496 1497 1498 1499 1499 1499 1498 1499 1499 1500 1500 1500 1501 1501 1501 1501 1502 1502 1502 1502 1503 1504 1504 1504 1505 1505 1506 1507 1508 1509 1509 1510 1511 1511 1512
1526 1527 1518 1498 1499 1502 1500 1495 1494 1494 1495 1495 1495 1495 1496 1496 1496 1497 1497 1498 1498 1498 1498 1499 1499 1499 1499 1499 1500 1501 1501 1501 1501 1501 1502 1502 1503 1504 1505 1506 1506 1507 1507 1507
1511 1507 1498 1495 1495 1495 1495 1494 1494 1493 1493 1493 1493 1493 1493 1494 1494 1494 1495 1495 1496 1496 1496 1496 1496 1497 1497 1497 1497 1498 1498 1498 1498 1498 1499 1499 1500 1500 1501 1502 1502 1503 1503 1503
1504 1497 1494 1493 1493 1493 1493 1493 1492 1492 1492 1491 1491 1491 1491 1491 1492 1492 1492 1493 1493 1493 1494 1494 1494 1494 1494 1495 1495 1495 1494 1494 1494 1495 1495 1496 1496 1497 1498 1498 1498 1499 1499 1500
1499 1494 1491 1489 1489 1490 1490 1490 1490 1490 1490 1490 1490 1489 1489 1489 1489 1489 1490 1490 1491 1491 1491 1492 1492 1492 1492 1492 1492 1491 1491 1491 1491 1491 1492 1492 1493 1493 1494 1495 1495 1496 1496 1496
1493 1489 1489 1487 1487 1487 1487 1487 1487 1488 1487 1487 1488 1487 1486 1486 1487 1487 1487 1488 1488 1488 1489 1489 1489 1489 1489 1489 1488 1488 1488 1488 1488 1488 1488 1489 1489 1490 1490 1492 1492 1493 1493 1493
1484 1484 1484 1483 1483 1484 1484 1484 1484 1484 1484 1484 1484 1484 1484 1483 1484 1484 1484 1485 1485 1486 1486 1486 1486 1486 1486 1485 1485 1485 1485 1485 1485 1485 1485 1485 1485 1486 1486 1487 1488 1488 1488 1489
1480 1480 1479 1479 1479 1479 1480 1480 1480 1480 1480 1480 1480 1480 1480 1480 1480 1481 1481 1482 1482 1483 1483 1483 1483 1483 1483 1483 1482 1482 1482 1482 1482 1482 1482 1482 1482 1482 1482 1482 1483 1483 1484 1484
1474 1475 1474 1474 1474 1475 1475 1475 1475 1475 1476 1476 1476 1476 1476 1476 1476 1477 1478 1478 1479 1479 1480 1479 1479 1479 1479 1479 1479 1479 1479 1479 1479 1479 1479 1479 1479 1478 1478 1479 1479 1479 1479 1480
1469 1469 1469 1469 1469 1469 1469 1470 1470 1470 1471 1471 1471 1471 1472 1473 1473 1473 1474 1474 1475 1475 1475 1475 1475 1475 1475 1475 1475 1475 1475 1475 1475 1475 1475 1475 1475 1474 1474 1474 1475 1475 1475 1475
1463 1462 1463 1463 1463 1463 1464 1465 1465 1465 1466 1466 1466 1467 1468 1468 1468 1469 1469 1470 1471 1471 1471 1471 1471 1471 1471 1471 1471 1470 1470 1470 1470 1470 1470 1470 1470 1470 1470 1470 1470 1470 1471 1471
1456 1456 1457 1457 1458 1458 1459 1459 1460 1460 1461 1461 1462 1463 1463 1463 1464 1464 1465 1466 1466 1466 1466 1466 1466 1466 1466 1466 1466 1466 1466 1465 1465 1465 1465 1466 1466 1466 1466 1466 1466 1466 1466 1466
1450 1450 1451 1451 1452 1453 1453 1454 1455 1455 1456 1457 1457 1458 1458 1459 1459 1460 1460 1461 1460 1460 1461 1461 1461 1461 1461 1461 1461 1461 1461 1461 1461 1461 1461 1461 1461 1461 1461 1461 1461 1461 1461 1461
1444 1445 1445 1446 1447 1448 1449 1449 1450 1451 1452 1452 1453 1453 1453 1454 1454 1455 1455 1455 1455 1456 1456 1456 1456 1456 1456 1456 1456 1456 1456 1456 1456 1456 1456 1456 1457 1457 1457 1457 1456 1456 1456 1456
1440 1441 1441 1442 1442 1443 1444 1445 1446 1446 1447 1448 1448 1448 1449 1449 1450 1450 1450 1450 1451 1451 1451 1451 1451 1451 1451 1451 1451 1451 1451 1451 1451 1451 1451 1451 1451 1451 1452 1452 1451 1451 1451 1451
1436 1437 1437 1438 1438 1439 1440 1441 1441 1442 1442 1443 1443 1444 1444 1444 1444 1444 1445 1445 1445 1446 1446 1446 1446 1446 1446 1446 1446 1446 1446 1446 1446 1446 1446 1446 1446 1446 1446 1446 1446 1446 1446 1446
1433 1433 1433 1434 1434 1435 1436 1436 1437 1437 1437 1438 1438 1438 1438 1438 1439 1439 1439 1440 1440 1440 1440 1440 1441 1441 1441 1441 1441 1441 1441 1441 1441 1441 1441 1441 1441 1441 1441 1441 1441 1441 1441 1440
1429 1429 1430 1430 1430 1431 1431 1431 1432 1432 1433 1433 1433 1434 1434 1433 1433 1434 1435 1435 1435 1435 1435 1435 1436 1436 1436 1436 1436 1436 1436 1436 1436 1436 1436 1436 1436 1436 1436 1436 1436 1436 1435 1435
1426 1426 1426 1426 1426 1426 1427 1427 1427 1427 1427 1428 1428 1428 1429 1429 1429 1429 1429 1430 1430 1430 1430 1431 1431 1431 1431 1431 1431 1431 1431 1432 1432 1432 1431 1431 1432 1431 1431 1431 1431 1430 1430 1430
1423 1423 1422 1423 1422 1422 1423 1423 1422 1422 1422 1422 1422 1423 1423 1423 1424 1424 1425 1425 1425 1426 1426 1426 1426 1426 1426 1426 1427 1427 1427 1427 1427 1427 1427 1427 1427 1427 1426 1426 1426 1425 1425 1425
1419 1419 1419 1418 1418 1418 1418 1418 1418 1418 1418 1417 1417 1418 1418 1418 1418 1419 1420 1420 1421 1421 1421 1421 1421 1422 1422 1422 1422 1422 1422 1422 1422 1422 1422 1422 1422 1421 1421 1421 1421 1420 1420 1420